Tracking 19817 objects as of 17-Aug-2019
HD Live streaming from Space Station
objects crossing your sky now

COSMOS 2251 DEB

Track COSMOS 2251 DEB now!
10-day predictions


NORAD ID: 40238
Int'l Code: 1993-036BVT
Perigee: 758.8 km
Apogee: 1,640.5 km
Inclination: 74.0 °
Period: 109.3 minutes
Semi major axis: 7570 km
RCS: Unknown
Launch date: June 16, 1993
Source: Commonwealth of Independent States (former USSR) (CIS)
Launch site: PLESETSK MISSILE AND SPACE COMPLEX (PKMTR)

Note: This is SATELLITE DEBRIS
aabbcc
Your satellite tracking list
Your tracking list is empty




NASA's NSSDC Master Catalog

Two Line Element Set (TLE):
1 40238U 93036BVT 19228.00946022  .00000241  00000-0  27416-3 0  9993
2 40238  73.9938 342.2458 0582305  36.2441 327.6665 13.17973212423874
Source of the keplerian elements: AFSPC